EDT,Max TemperatureF,Mean TemperatureF,Min TemperatureF,Max Dew PointF,MeanDew PointF,Min DewpointF,Max Humidity, Mean Humidity, Min Humidity, Max Sea Level PressureIn, Mean Sea Level PressureIn, Min Sea Level PressureIn, Max VisibilityMiles, Mean VisibilityMiles, Min VisibilityMiles, Max Wind SpeedMPH, Mean Wind SpeedMPH, Max Gust SpeedMPH,PrecipitationIn, CloudCover, Events, WindDirDegrees
2013-7-1,77,68,60,61,59,57,94,74,50,30.05,29.97,29.91,10,9,4,8,3,,0.01,6,Rain,144
2013-7-2,75,68,62,64,61,59,94,82,61,30.22,30.13,30.04,10,10,7,9,2,,0.07,6,Rain,159
2013-7-3,71,66,62,64,62,61,94,85,69,30.32,30.27,30.21,10,9,3,7,1,,0.52,7,Rain,200
2013-7-4,78,70,62,64,61,61,94,76,54,30.34,30.30,30.25,10,10,7,12,2,18,0.02,5,Rain,168
2013-7-5,80,71,62,66,62,61,94,74,51,30.34,30.29,30.24,10,10,3,13,2,17,0.15,4,Rain-Thunderstorm,193
2013-7-6,80,70,60,63,59,55,94,69,42,30.31,30.27,30.20,10,9,0,12,3,18,0.00,2,Fog,188
2013-7-7,77,70,62,63,61,59,94,84,57,30.26,30.21,30.17,10,10,2,15,1,21,0.26,4,Rain-Thunderstorm,225
2013-7-8,78,68,59,63,59,55,94,76,44,30.27,30.24,30.21,10,8,0,8,2,,0.00,4,Fog,268
2013-7-9,82,72,62,63,61,57,94,74,42,30.26,30.22,30.16,10,8,2,8,1,,0.00,3,Rain,246
2013-7-10,78,71,64,66,64,63,94,84,61,30.19,30.12,30.04,10,8,4,9,1,16,0.33,5,Rain-Thunderstorm,206
2013-7-11,75,68,62,64,62,59,100,84,61,30.06,30.03,29.98,10,8,0,12,2,16,0.08,7,Fog-Rain,245
2013-7-12,73,66,60,61,58,55,94,81,53,30.17,30.07,30.01,10,9,1,12,3,17,0.01,6,Rain-Thunderstorm,53
2013-7-13,71,64,57,63,59,54,94,78,64,30.29,30.22,30.14,10,10,5,7,3,,0.01,7,Rain,84
2013-7-14,78,71,64,63,61,59,88,72,51,30.42,30.37,30.29,10,10,5,12,4,18,0.01,4,Rain,124
2013-7-15,84,72,60,64,61,59,94,71,42,30.46,30.41,30.36,10,9,5,8,1,,0.00,1,Thunderstorm,225
2013-7-16,86,73,60,64,62,57,94,76,37,30.44,30.40,30.36,10,8,0,15,1,22,0.07,3,Fog-Rain-Thunderstorm,10
2013-7-17,84,74,64,70,65,63,94,81,51,30.41,30.35,30.28,10,6,0,8,1,,0.24,4,Fog-Rain-Thunderstorm,19
2013-7-18,82,72,62,70,65,61,94,83,58,30.33,30.26,30.19,10,5,0,7,1,,0.00,3,Fog-Thunderstorm,285
2013-7-19,82,73,64,68,65,63,100,82,58,30.22,30.15,30.08,10,5,0,13,1,22,0.03,5,Fog-Rain-Thunderstorm,239
2013-7-20,80,71,62,66,62,59,94,79,51,30.10,30.06,30.00,10,8,0,10,2,21,0.27,2,Fog-Rain-Thunderstorm,240
2013-7-21,78,68,59,68,62,57,94,84,54,30.11,30.06,30.02,10,6,0,8,1,,0.06,4,Fog-Rain-Thunderstorm,243
2013-7-22,77,70,64,64,63,61,94,83,57,30.07,29.99,29.90,10,6,0,9,2,,0.55,6,Fog-Rain,223
2013-7-23,80,72,64,64,61,57,94,73,45,29.92,29.90,29.86,10,10,5,10,3,20,0.00,4,,282
2013-7-24,77,70,62,61,57,50,94,70,39,30.02,29.93,29.86,10,9,4,8,2,,0.00,3,,297
2013-7-25,73,64,55,55,52,46,94,67,41,30.15,30.06,30.00,10,10,5,8,2,,0.00,3,,298
2013-7-26,77,64,50,59,53,48,94,71,36,30.19,30.14,30.10,10,8,0,10,1,16,0.00,3,Fog,252
2013-7-27,68,64,60,63,60,57,94,87,73,30.12,30.06,29.99,10,8,0,10,1,,0.52,7,Fog-Rain-Thunderstorm,180
2013-7-28,75,68,60,61,56,52,100,73,44,30.13,30.04,29.98,10,8,0,9,3,9,0.03,5,Fog-Rain,274
2013-7-29,71,58,46,54,48,43,100,68,38,30.31,30.21,30.13,10,8,0,9,2,22,0.00,3,Fog,294
2013-7-30,73,60,46,55,50,45,100,72,36,30.34,30.28,30.24,10,8,0,7,2,,0.00,2,Fog,316
2013-7-31,64,62,59,59,57,54,94,88,68,30.25,30.19,30.08,10,6,2,5,1,,0.45,8,Rain,142